COSMOS 1275 DEB, 42198

Orbit data source: Space-Track

COSMOS 1275 DEB, 42198 is space debris in LEO originally from a launch on Thu, 04 Jun 1981 UTC launched from the Plesetsk Missile And Space Complex (PKMTR). Debris objects in space refer to the collection of defunct objects orbiting the Earth. Examples of debris include non-operational satellites, rocket bodies, and fragments generated from explosions, collisions, or faulty payload assembly.

Loading next visibility...
Identifier
42198, 1981-053TN
Orbit
LEO
Country
Flag of CISCIS
Related business
Manufacturer
Unknown
Mission
Spacecraft
Bus & Motor
Unknown
Mass
Unknown
Launch date (UTC)
1981-06-04 (45 years ago)
Launch vehicle
Unknown
Launch site
Plesetsk Missile And Space Complex (PKMTR)
Object type
Payload
Rocket body
Debris
Shape & HBR
Unknown shape, 0.1 m
Radar Cross Section
Small (<0.1 m²)

Expand to show TLE details & history
Last TLE update: 3 days ago

TLE from 3 days ago
0 COSMOS 1275 DEB
1 42198U 81053TN  25352.92507512  .00000723  00000-0  56361-3 0  9995
2 42198  82.8067  56.9390 0039924 154.3207 205.9952 13.90720657611648
Epoch: 2025-12-18T22:12Z
TLE epoch observation values (Epoch: 2025-12-18T22:12:06.490Z)
Latitude
-0.00001°
Longitude
-3.86164°
Altitude
955.263 km
Speed
7.361 km/s
True Right ascension
03h 47m 45s
True Declination
0° 00' 00"
Sunlit
Object was in full shadow at epoch
Visualization orbit readout
Latitude
Unknown
Longitude
Unknown
Altitude
Unknown
Speed
Unknown
Apparent Right ascension
Unknown
Apparent Declination
Unknown
Sunlit
N/A
Visualization observer readout
Local Sidereal Time
11:14:07
Azimuth
Unknown
Elevation
Unknown
Doppler factor
Unknown
Orbital elements
Apogee altitude
952.389 km
Perigee altitude
894.089 km
Semi-major axis
7,301.376 km
Eccentricity
0.00399
Inclination
82.8067°
RAAN
56.939°
Arg. of periapsis
154.3207°
True anomaly
205.79558°
Mean anomaly
205.9952°
Eccentric anomaly
205.8953°
Mean motion
3.47885 °/min
Orbital period
103.48 mins
BSTAR
0.00056361
Loading maneuver chart data...
Computing Atmospheric mass density...
Loading historical data...
Loading historical data...
Loading historical data...
Loading historical data...
Loading historical data...
Loading historical data...
Loading historical data...

Documentation

Showing up to 5 results
|